#timestamp,LO_Frequency,Hit 
1503046815.4,286046991.8,N
1503046835.2,286046991.9,N
1503046855.0,286046995.8,N
1503046855.9,286046995.8,N
1503046875.8,286046997.1,N
1503046895.6,286047002.4,N
1503046915.4,286047003.2,N
1503046935.2,286047009.0,N
1503046955.6,286047009.0,N
1503046975.4,286047010.7,N
1503046995.3,286047012.3,N
1503047015.1,286047007.4,N
1503047035.8,286047003.7,N
1503047055.7,286047003.8,N
1503047075.5,286047009.2,N
1503047095.3,286047007.2,N
1503047115.2,286047002.7,N
1503047135.9,286047002.5,N
1503047155.7,286047005.6,N
1503047175.6,286047002.3,N
1503047195.4,286047002.6,N
1503047215.2,286047003.8,N
1503047235.0,286047003.6,N
1503047235.9,286047003.6,N
1503047255.8,286047001.9,N
1503047275.6,286047002.6,N
1503047295.4,286047001.5,N
1503047315.3,286047000.8,N
1503047335.1,286046997.3,N
1503047355.8,286047000.7,N
1503047375.7,286047001.6,N
1503047395.5,286047002.9,N
1503047415.3,286047005.4,N
1503047435.2,286047005.1,N
1503047455.9,286047005.3,N
1503047475.7,286047001.5,N
1503047495.6,286047000.4,N
1503047515.4,286047004.3,N
1503047535.2,286047003.4,N
1503047555.0,286047004.2,N
1503047556.0,286047004.2,N
1503047575.8,286047001.8,N
1503047595.6,286047004.4,N
1503047615.4,286047002.1,N
1503047635.3,286047002.3,N
1503047655.1,286047000.3,N
1503047675.8,286046999.1,N
1503047695.7,286047002.3,N
1503047715.5,286046996.8,N
1503047735.3,286046993.4,P
1503047755.2,286046994.4,N
1503047775.0,286046992.4,N
1503047775.9,286046992.4,N
1503047795.8,286046990.8,N
1503047815.6,286046990.9,N
1503047835.4,286046991.5,N
1503047855.2,286046991.8,N
1503047875.1,286046994.4,N
1503047876.0,286046994.4,N
1503047895.8,286046994.3,N
1503047915.6,286046992.1,N
1503047935.5,286046994.1,N
1503047955.3,286046994.5,N
1503047975.1,286046991.9,P
1503047995.9,286046998.8,N
1503048015.7,286046994.9,N
1503048035.5,286046993.2,N
1503048055.4,286046991.2,P
1503048075.2,286046999.5,N
1503048095.0,286046996.6,N
1503048095.9,286046996.6,N
1503048115.8,286046996.9,N
1503048135.6,286046999.3,N
1503048155.4,286046999.7,N
1503048175.3,286047007.2,N
1503048195.1,286047010.7,N
1503048196.0,286047010.7,N
1503048215.8,286047006.9,N
1503048235.7,286047008.3,N
1503048255.5,286047010.7,N
1503048275.3,286047012.1,N
1503048295.2,286047007.2,N
1503048315.9,286047004.6,N
1503048335.7,286047004.0,N
1503048355.5,286047005.7,N
1503048375.4,286047004.7,N
1503048395.2,286047008.6,N
1503048415.0,286047008.7,N
1503048415.9,286047008.7,N
1503048435.8,286047006.2,N
1503048455.6,286047007.8,N
1503048475.4,286047006.1,N
1503048495.3,286047005.5,N
1503048515.1,286047007.1,N
1503048516.0,286047007.1,N
1503048535.8,286047007.4,N
1503048555.7,286047009.1,N
1503048575.5,286047009.5,N
1503048595.3,286047012.2,N
1503048615.2,286047011.9,N
1503048635.9,286047010.4,N
1503048655.7,286047006.1,N
1503048675.6,286047006.1,N
1503048695.4,286047003.2,N
1503048715.2,286047006.6,N
1503048735.1,286047008.9,P
1503048736.0,286047008.9,P
1503048755.8,286046999.2,N
1503048775.6,286046995.1,N
1503048795.5,286046994.5,N
1503048815.3,286046997.7,N
1503048835.1,286046997.7,N
1503048855.8,286047001.0,N
1503048875.7,286046999.9,N
1503048895.5,286047004.4,N
1503048915.3,286047002.9,N
1503048935.2,286047004.4,N
1503048955.9,286047005.9,N
1503048975.7,286047009.2,N
1503048995.1,286047008.9,N
1503049015.8,286047010.4,N
1503049035.7,286047008.1,N
1503049055.5,286047005.3,N
1503049075.3,286047003.7,N
1503049095.2,286047003.9,N
1503049115.9,286047003.0,N
1503049135.7,286047004.6,N
1503049155.6,286047003.2,N
1503049175.4,286047005.4,N
1503049195.2,286047003.6,N
1503049215.0,286047006.7,N
1503049216.0,286047006.7,N
1503049235.8,286047010.5,N
1503049255.6,286047013.8,P
1503049275.5,286047012.4,N
1503049295.3,286047014.9,P
1503049315.1,286047014.4,P
1503049335.9,286047006.5,P
1503049355.7,286047007.9,N
1503049375.5,286047007.5,N
1503049395.4,286047009.6,P
1503049415.2,286047004.1,P
1503049435.0,286047002.8,N
1503049435.9,286047002.8,N
1503049455.8,286047002.8,N
1503049475.6,286047000.2,N
1503049495.4,286046998.9,N
1503049515.3,286046996.1,N
1503049535.1,286046994.8,N
1503049536.0,286046994.8,N
1503049555.8,286046994.5,N
1503049575.7,286046993.9,N
1503049595.5,286046993.7,N
1503049615.3,286046990.1,N
1503049635.2,286046994.7,N
1503049655.9,286046990.7,N
1503049675.7,286046994.3,N
1503049695.6,286046994.8,N
1503049715.4,286046992.1,N
1503049735.2,286046993.8,N
1503049755.0,286046992.2,N
1503049755.9,286046992.2,N
1503049775.8,286046992.1,N
1503049795.6,286046992.7,N
1503049815.4,286046993.6,N
1503049835.3,286046991.3,N
1503049855.1,286046987.4,N
1503049875.8,286046985.2,N
1503049895.7,286046982.5,P
1503049915.5,286046987.3,N
1503049935.3,286046990.4,N
1503049955.2,286046992.9,N
1503049975.1,286046994.0,N
1503049995.9,286046996.2,N
1503050015.7,286046991.9,N
1503050035.5,286046992.6,N
1503050055.4,286046992.9,N
1503050075.2,286046990.5,N
1503050095.0,286046992.0,N
1503050095.9,286046992.0,N
1503050115.8,286046995.9,N
1503050135.6,286046990.9,N
1503050155.4,286046992.8,N
1503050175.3,286046994.2,N
1503050195.1,286046988.5,P
1503050196.0,286046988.5,P
1503050215.8,286046995.8,N
1503050235.7,286047000.0,N
1503050255.5,286047004.0,N
1503050275.3,286047004.1,N
1503050295.2,286047002.0,N
1503050315.9,286047002.3,N
1503050335.7,286047001.4,N
1503050355.5,286047005.8,N
1503050375.4,286047007.4,N
1503050395.2,286047010.4,N
